Theta_e
311 309 307 305 303 302 302 304 304 305 306 304 304 302 300 298 296 295 296 295 294 293
308 307 304 303 302 302 303 303 304 304 303 301 299 300 300 299 298 298 297 297 296 295
306 305 303 302 301 301 302 302 301 301 300 299 298 298 298 296 297 296 297 297 296 295
304 303 302 301 301 300 300 300 299 299 298 297 296 296 296 295 296 294 294 294 293 293
302 301 301 300 298 299 298 299 299 299 296 296 296 296 295 295 294 293 292 293 293 292
300 300 298 298 297 297 297 296 297 297 296 295 295 293 292 292 292 291 291 291 290 290
299 298 297 297 297 296 295 294 293 293 292 292 292 291 291 291 290 290 290 290 290 290
298 297 296 296 295 294 293 292 292 292 292 292 291 290 289 288 287 287 287 288 289 290
297 295 295 294 293 292 292 291 291 291 291 290 289 285 284 284 285 285 285 286 287 288
296 295 294 292 291 291 290 291 290 290 290 289 289 284 283 283 284 284 285 286 286 286
295 294 292 292 290 290 290 290 289 289 289 288 287 285 283 282 283 284 284 285 285 285
294 293 291 290 290 290 290 289 288 288 287 286 286 285 283 282 282 282 282 283 284 284
293 292 291 290 290 290 290 288 288 287 286 285 285 285 283 282 282 280 281 282 282 283
294 292 291 290 290 289 289 288 287 286 286 285 285 284 283 282 281 281 281 281 282 284
Wind_Speed
11 8 9 12 11 10 11 11 14 12 11 9 7 7 5 3 2 1 3 4 3 3
11 12 11 13 12 10 13 11 14 12 9 8 9 8 9 8 9 7 7 6 6 5
12 12 13 12 13 14 13 13 11 10 6 9 8 9 11 9 10 8 7 7 9 8
11 10 11 11 12 11 13 12 12 10 9 7 9 10 9 11 10 9 9 9 9 11
12 10 12 11 9 9 10 13 12 10 9 12 12 10 8 12 10 10 12 13 13 14
13 11 11 8 8 9 11 13 12 10 11 10 11 13 12 11 10 12 12 13 14 14
12 9 8 9 10 11 12 14 14 14 14 12 13 13 12 11 14 15 15 14 14 14
10 9 10 11 11 12 12 12 13 13 12 12 12 7 7 10 13 16 16 16 16 15
8 8 10 11 11 12 12 12 12 13 13 13 10 8 6 8 12 16 16 16 15 15
8 10 10 11 11 11 12 12 12 13 12 12 14 6 7 11 12 15 16 16 15 15
9 10 11 11 11 11 11 12 12 12 12 12 11 8 11 14 14 14 16 17 17 16
10 12 10 11 11 11 11 11 12 11 12 14 14 14 12 14 13 14 16 15 15 14
10 10 9 9 11 10 12 11 9 9 11 12 14 12 15 12 9 12 11 13 14 16
10 11 9 8 11 11 12 11 7 7 10 13 11 13 15 12 9 10 11 11 11 10
Wind_Direction
335 334 334 339 329 317 321 322 326 315 345 350 10 39 57 77 80 13 315 307 268 273
330 333 334 335 329 332 328 321 345 349 337 18 33 14 355 339 311 276 257 263 260 255
331 340 332 333 330 328 327 326 307 309 0 6 357 342 330 306 283 283 287 276 247 244
324 324 319 316 334 343 327 326 329 336 336 342 330 318 310 296 299 312 301 296 294 292
317 311 321 349 322 331 314 304 319 340 333 317 311 307 321 309 312 302 301 302 298 292
313 336 332 327 317 314 315 319 315 312 300 292 283 298 308 288 279 282 286 289 291 295
330 334 295 304 309 315 321 323 325 323 318 315 309 308 308 334 322 313 306 300 293 291
323 319 321 317 320 320 320 317 317 317 314 314 310 345 346 326 316 310 305 300 291 283
320 327 307 311 316 319 318 321 319 316 314 315 312 76 27 339 316 306 299 300 297 292
314 297 305 308 318 318 320 315 315 312 314 322 314 72 2 346 319 306 294 295 298 296
285 289 293 309 311 322 314 319 316 316 328 326 321 45 356 341 313 306 302 299 303 303
282 277 300 304 319 314 315 313 318 336 336 324 324 335 331 324 315 310 314 309 307 302
285 288 288 307 313 312 311 317 338 326 317 306 297 307 316 313 309 311 303 306 302 298
314 293 307 306 301 312 322 332 350 309 312 306 312 311 319 329 315 309 309 306 301 295